EW2345 Weather Reports


Display with metric or nautical units.
time (UTC)temp
F
wind
direction
speed
MPH
gust
MPH
rain 1hr
in
rain 24hr
in
rain mn
in
humidity
%
barometer
mb
20260510094908 55 213 17.0 25.0 0.00 0.43 0.06 89 1009.7
20260510094409 55 222 13.0 24.0 0.00 0.43 0.06 87 1009.6
20260510093909 56 208 13.0 23.0 0.00 0.43 0.06 87 1009.5
20260510093408 56 217 17.0 24.0 0.00 0.43 0.06 88 1009.4
20260510092910 57 218 12.0 21.0 0.00 0.43 0.06 89 1009.4
20260510092408 55 217 7.0 18.0 0.00 0.43 0.06 90 1009.5
20260510091409 54 221 11.0 21.0 0.00 0.43 0.06 90 1009.4
20260510090909 55 209 9.0 20.0 0.00 0.43 0.06 88 1009.3
20260510090409 57 233 12.0 15.0 0.00 0.43 0.06 87 1009.2
20260510085910 57 208 7.0 12.0 0.00 0.43 0.06 87 1009.2
20260510085409 56 203 5.0 13.0 0.01 0.43 0.06 93 1009.2
20260510084909 54 216 7.0 13.0 0.01 0.43 0.06 96 1009.2
20260510084408 52 215 8.0 14.0 0.01 0.43 0.06 98 1009.3
20260510083909 51 217 6.0 12.0 0.01 0.43 0.06 100 1009.3
20260510083410 51 210 7.0 21.0 0.01 0.43 0.06 100 1009.4
20260510082409 51 214 14.0 23.0 0.01 0.43 0.06 100 1009.2
20260510081409 51 192 8.0 16.0 0.01 0.43 0.06 100 1009.2
20260510080909 51 207 5.0 7.0 0.01 0.43 0.06 100 1009.2
20260510075909 50 207 1.0 3.0 0.01 0.43 0.06 100 1009.0
20260510075409 50 207 0.0 0.0 0.00 0.43 0.06 100 1009.1
20260510074909 50 207 0.0 0.0 0.00 0.43 0.06 100 1009.0
20260510073910 50 207 2.0 3.0 0.01 0.43 0.06 100 1008.9
20260510072910 50 207 0.0 0.0 0.01 0.43 0.06 100 1008.8
20260510072409 50 207 0.0 2.0 0.01 0.43 0.06 100 1008.8
20260510071910 50 207 1.0 2.0 0.01 0.43 0.06 100 1008.7
20260510071408 49 207 1.0 3.0 0.01 0.43 0.06 100 1008.7
20260510070408 49 207 2.0 3.0 0.01 0.43 0.06 100 1008.6
20260510065910 49 207 2.0 3.0 0.01 0.43 0.06 100 1008.6
20260510065409 49 207 3.0 5.0 0.01 0.43 0.06 100 1008.6
20260510064909 49 207 1.0 2.0 0.01 0.43 0.06 100 1008.6
20260510064409 48 207 1.0 2.0 0.00 0.42 0.05 100 1008.6
20260510063908 48 207 0.0 0.0 0.00 0.42 0.05 100 1008.5
20260510063409 48 207 0.0 0.0 0.00 0.42 0.05 100 1008.5
20260510062910 48 207 0.0 1.0 0.00 0.42 0.05 100 1008.5
20260510062408 48 207 3.0 3.0 0.00 0.42 0.05 100 1008.5
20260510061909 48 207 0.0 2.0 0.00 0.42 0.05 100 1008.6
20260510061409 48 207 0.0 2.0 0.00 0.42 0.05 100 1008.5
20260510060910 48 207 0.0 3.0 0.00 0.42 0.05 100 1008.4
20260510060409 48 207 1.0 2.0 0.00 0.42 0.05 100 1008.3
20260510055910 48 207 0.0 0.0 0.00 0.42 0.05 100 1008.4
20260510055409 48 207 0.0 0.0 0.00 0.42 0.05 100 1008.4
20260510054909 48 207 0.0 0.0 0.00 0.42 0.05 100 1008.3
20260510054408 48 207 0.0 0.0 0.00 0.42 0.05 100 1008.3
20260510053909 47 207 0.0 2.0 0.01 0.42 0.05 100 1008.3
20260510053409 47 207 2.0 3.0 0.01 0.42 0.05 100 1008.3
20260510052910 47 207 4.0 5.0 0.01 0.42 0.05 100 1008.3
20260510052409 47 207 5.0 6.0 0.01 0.42 0.05 100 1008.2
20260510051908 47 207 2.0 3.0 0.01 0.42 0.05 100 1008.2
20260510051409 47 207 1.0 5.0 0.01 0.42 0.05 100 1008.0
20260510050909 47 207 2.0 3.0 0.01 0.42 0.05 100 1008.1
20260510050409 47 207 2.0 3.0 0.01 0.42 0.05 100 1008.2
20260510045909 47 207 0.0 2.0 0.01 0.42 0.05 100 1008.2
20260510045409 47 207 1.0 2.0 0.01 0.42 0.05 100 1008.2
20260510044909 47 207 0.0 3.0 0.01 0.42 0.05 100 1008.1
20260510044410 47 207 0.0 0.0 0.01 0.42 0.05 99 1008.2
20260510043910 47 207 1.0 2.0 0.00 0.41 0.04 99 1008.2
20260510043409 47 207 0.0 0.0 0.00 0.41 0.04 99 1008.2
20260510042910 47 207 0.0 2.0 0.00 0.41 0.04 99 1008.2
20260510042409 47 207 1.0 2.0 0.00 0.41 0.04 99 1008.2
20260510041409 47 207 1.0 3.0 0.00 0.41 0.04 99 1008.2
20260510040909 47 207 0.0 1.0 0.00 0.41 0.04 99 1008.2
20260510040409 47 207 0.0 1.0 0.00 0.41 0.04 99 1008.2
20260510035910 47 207 0.0 2.0 0.00 0.41 0.04 99 1008.1
20260510035409 47 207 0.0 0.0 0.00 0.41 0.04 99 1008.2
20260510034908 47 207 0.0 10.0 0.00 0.41 0.04 99 1008.2
20260510033909 47 206 0.0 3.0 0.00 0.41 0.04 99 1008.4
20260510032910 48 206 0.0 1.0 0.00 0.41 0.04 99 1008.5
20260510032409 48 206 1.0 2.0 0.00 0.41 0.04 99 1008.5
20260510031909 48 206 1.0 3.0 0.00 0.41 0.04 99 1008.6
20260510031409 48 206 4.0 5.0 0.00 0.41 0.04 99 1008.6
20260510030909 48 206 2.0 5.0 0.00 0.41 0.04 99 1008.6
20260510030409 48 206 3.0 7.0 0.00 0.41 0.04 99 1008.6
20260510025409 48 209 1.0 3.0 0.00 0.41 0.04 99 1008.5
20260510024908 48 209 1.0 3.0 0.00 0.41 0.04 99 1008.7
20260510024408 48 209 0.0 2.0 0.00 0.41 0.04 99 1008.7
20260510023909 48 209 0.0 2.0 0.00 0.41 0.04 99 1008.7
20260510022910 48 209 0.0 5.0 0.01 0.41 0.04 99 1008.7
20260510022409 48 209 0.0 3.0 0.01 0.41 0.04 99 1008.7
20260510020909 48 209 2.0 3.0 0.01 0.42 0.04 99 1008.8
20260510020409 48 209 2.0 3.0 0.01 0.42 0.04 99 1008.8
20260510015910 48 209 1.0 5.0 0.01 0.42 0.04 99 1008.8
20260510015409 48 209 1.0 3.0 0.01 0.42 0.04 99 1008.8
20260510014910 48 209 1.0 5.0 0.01 0.42 0.04 99 1008.8
20260510014408 48 209 0.0 2.0 0.01 0.42 0.04 99 1008.8
20260510013909 48 209 0.0 3.0 0.01 0.42 0.04 99 1008.9
20260510012910 48 209 0.0 2.0 0.00 0.42 0.03 99 1008.9
20260510011909 48 209 0.0 3.0 0.00 0.44 0.03 99 1009.0
20260510011409 48 209 1.0 3.0 0.00 0.45 0.03 99 1009.1
20260510010909 48 209 0.0 2.0 0.00 0.46 0.03 99 1009.0
20260510010409 48 209 0.0 2.0 0.00 0.46 0.03 99 1009.1
20260510005910 48 209 1.0 2.0 0.02 0.46 0.03 99 1009.1
20260510005409 48 209 1.0 2.0 0.02 0.46 0.03 99 1009.2
20260510004910 48 209 0.0 3.0 0.02 0.46 0.03 99 1009.1
20260510003909 48 207 2.0 5.0 0.02 0.46 0.03 99 1009.1
20260510003409 48 207 0.0 2.0 0.02 0.46 0.03 99 1009.1
20260510002910 48 207 1.0 5.0 0.03 0.46 0.03 99 1009.1
20260510002409 48 207 3.0 7.0 0.03 0.46 0.03 99 1009.2
20260510001909 48 207 4.0 6.0 0.03 0.46 0.03 99 1009.1
20260510001408 48 207 5.0 7.0 0.03 0.46 0.03 99 1009.2
20260510000910 48 210 7.0 12.0 0.03 0.46 0.03 99 1009.3
20260510000411 48 199 2.0 12.0 0.03 0.46 0.03 98 1009.2
20260509235910 48 198 0.0 2.0 0.01 0.43 0.01 98 1009.2
20260509235409 48 198 1.0 3.0 0.01 0.43 0.01 98 1009.2
20260509234908 48 198 3.0 5.0 0.01 0.43 0.01 98 1009.1
20260509234409 48 198 0.0 2.0 0.01 0.43 0.01 98 1009.1
20260509233409 48 198 4.0 5.0 0.01 0.43 0.01 98 1009.2
20260509232409 49 198 0.0 2.0 0.00 0.43 0.00 98 1009.4
20260509231909 49 198 3.0 5.0 0.00 0.43 0.00 98 1009.3
20260509231408 49 198 0.0 2.0 0.00 0.43 0.00 98 1009.4
20260509230909 49 198 4.0 6.0 0.00 0.43 0.00 98 1009.4
20260509230410 49 198 2.0 3.0 0.00 0.43 0.00 98 1009.3
20260509225910 49 198 1.0 3.0 0.00 0.43 0.00 98 1009.3
20260509225409 49 198 0.0 1.0 0.00 0.43 0.00 98 1009.3
20260509224909 49 198 0.0 1.0 0.00 0.43 0.00 98 1009.4
20260509224408 49 198 0.0 1.0 0.01 0.43 0.00 98 1009.3
20260509223909 49 198 1.0 3.0 0.01 0.43 0.00 98 1009.2
20260509223409 50 198 1.0 3.0 0.01 0.43 0.00 98 1009.2
20260509222910 50 198 1.0 3.0 0.01 0.43 0.00 98 1009.3
20260509221909 50 198 0.0 3.0 0.02 0.43 0.00 98 1009.2
20260509221409 50 198 2.0 3.0 0.02 0.43 0.00 98 1009.1
20260509220909 50 198 1.0 3.0 0.02 0.43 0.00 98 1009.1
20260509220409 50 200 1.0 3.0 0.02 0.43 0.00 98 1009.1
20260509215910 50 200 1.0 3.0 0.04 0.43 0.00 98 1009.1
20260509215410 50 200 1.0 2.0 0.04 0.43 0.43 98 1009.1
20260509214909 50 200 1.0 2.0 0.05 0.43 0.43 98 1009.1
20260509214409 50 200 0.0 1.0 0.05 0.42 0.42 98 1009.1
20260509213908 50 200 0.0 0.0 0.05 0.42 0.42 98 1009.1
20260509212409 50 200 0.0 2.0 0.07 0.42 0.42 98 1009.0
20260509211909 50 200 1.0 2.0 0.07 0.42 0.42 97 1008.9
20260509210909 50 200 0.0 2.0 0.08 0.40 0.40 97 1008.8
20260509210409 50 200 1.0 3.0 0.08 0.40 0.40 97 1008.9
20260509205909 50 200 0.0 3.0 0.06 0.39 0.39 97 1008.9
20260509205409 50 200 1.0 3.0 0.07 0.39 0.39 97 1008.8
20260509204910 50 200 3.0 6.0 0.06 0.38 0.38 97 1008.7
20260509204409 51 200 2.0 5.0 0.06 0.37 0.37 97 1008.7
20260509203909 51 200 2.0 9.0 0.06 0.37 0.37 97 1008.6
20260509202910 51 211 9.0 15.0 0.06 0.35 0.35 97 1008.6
20260509202409 51 214 11.0 20.0 0.05 0.35 0.35 97 1008.5
20260509200909 51 47 0.0 0.0 0.02 0.32 0.32 97 1008.1
20260509195910 51 47 2.0 3.0 0.02 0.32 0.32 97 1007.9
20260509195409 51 47 0.0 3.0 0.02 0.31 0.31 97 1007.8
20260509194909 51 47 0.0 1.0 0.02 0.31 0.31 97 1007.8
20260509194409 51 47 0.0 3.0 0.02 0.31 0.31 97 1007.7
20260509193909 51 47 1.0 2.0 0.02 0.31 0.31 97 1007.6
20260509192910 51 47 0.0 2.0 0.00 0.30 0.30 97 1007.5
20260509191909 51 47 0.0 0.0 0.00 0.30 0.30 97 1007.5
20260509190910 52 47 0.0 0.0 0.00 0.30 0.30 97 1007.3
20260509185910 52 47 0.0 0.0 0.00 0.30 0.30 97 1007.2
20260509185409 52 47 0.0 1.0 0.00 0.30 0.30 97 1007.3
20260509184909 52 47 1.0 3.0 0.01 0.30 0.30 97 1007.1
20260509184409 52 47 1.0 3.0 0.01 0.30 0.30 97 1007.1
20260509183909 52 47 0.0 3.0 0.02 0.30 0.30 97 1007.0
20260509182910 52 47 0.0 3.0 0.03 0.30 0.30 97 1007.0
20260509182409 51 47 3.0 5.0 0.03 0.30 0.30 97 1007.0
20260509181909 51 47 2.0 3.0 0.05 0.30 0.30 97 1007.0
20260509180909 51 47 2.0 3.0 0.08 0.30 0.30 97 1006.8
20260509180409 51 47 1.0 3.0 0.09 0.30 0.30 97 1006.8
20260509175910 51 47 0.0 3.0 0.09 0.30 0.30 97 1006.7
20260509175408 51 47 3.0 6.0 0.09 0.30 0.30 97 1006.6
20260509174909 51 47 1.0 3.0 0.09 0.29 0.29 96 1006.6
20260509174409 51 47 0.0 2.0 0.09 0.29 0.29 96 1006.6
20260509173910 51 47 3.0 6.0 0.08 0.28 0.28 96 1006.5
20260509173410 51 47 6.0 7.0 0.06 0.27 0.27 96 1006.5
20260509172910 51 48 5.0 8.0 0.06 0.27 0.27 96 1006.3
20260509172409 51 48 6.0 8.0 0.06 0.27 0.27 96 1006.1
20260509171909 51 129 1.0 3.0 0.06 0.25 0.25 95 1006.3
20260509171409 51 129 0.0 2.0 0.04 0.24 0.24 96 1006.4
20260509170410 51 68 0.0 3.0 0.02 0.20 0.20 95 1006.1
20260509165910 51 38 2.0 5.0 0.02 0.20 0.20 95 1006.1
20260509165409 51 38 1.0 5.0 0.03 0.20 0.20 95 1006.1
20260509164909 51 36 2.0 6.0 0.04 0.20 0.20 95 1006.1
20260509164409 51 25 2.0 5.0 0.04 0.20 0.20 95 1006.1
20260509163409 51 25 1.0 3.0 0.05 0.20 0.20 94 1006.0
20260509162910 51 25 2.0 5.0 0.06 0.20 0.20 93 1006.1
20260509162409 51 238 2.0 5.0 0.08 0.20 0.20 91 1006.2
20260509161908 52 236 1.0 3.0 0.09 0.20 0.20 88 1006.2
20260509161409 52 236 0.0 1.0 0.10 0.20 0.20 88 1006.3
20260509160909 52 236 0.0 0.0 0.10 0.20 0.20 88 1006.2
20260509160410 52 236 1.0 3.0 0.09 0.19 0.19 88 1006.1
20260509155910 52 236 1.0 3.0 0.09 0.18 0.18 87 1006.1
20260509155409 53 236 5.0 8.0 0.08 0.17 0.17 86 1006.0
20260509154409 53 233 3.0 8.0 0.07 0.17 0.17 86 1005.8
20260509153909 54 215 7.0 12.0 0.06 0.16 0.16 85 1005.7
20260509153409 54 213 9.0 15.0 0.06 0.16 0.16 84 1005.5
20260509152910 55 211 9.0 18.0 0.05 0.14 0.14 82 1005.4
20260509151909 59 195 15.0 25.0 0.01 0.10 0.10 82 1005.3
20260509151409 59 219 11.0 15.0 0.00 0.09 0.09 84 1005.1
20260509150909 59 83 1.0 6.0 0.00 0.09 0.09 84 1004.6
20260509150409 59 83 0.0 2.0 0.00 0.09 0.09 84 1004.4
20260509144910 59 96 2.0 6.0 0.00 0.09 0.09 83 1004.4
20260509144410 59 78 0.0 2.0 0.00 0.09 0.09 85 1004.5
20260509143909 59 77 2.0 6.0 0.00 0.09 0.09 81 1004.4
20260509143408 60 128 1.0 3.0 0.00 0.09 0.09 78 1004.4
20260509142410 61 84 1.0 5.0 0.00 0.09 0.09 77 1004.4
20260509141909 61 84 1.0 6.0 0.00 0.09 0.09 78 1004.4
20260509141409 62 108 2.0 7.0 0.00 0.09 0.09 77 1004.4
20260509140909 62 133 0.0 12.0 0.00 0.09 0.09 76 1004.4
20260509134909 60 157 2.0 7.0 0.00 0.09 0.09 78 1004.5
20260509134409 60 97 1.0 3.0 0.00 0.09 0.09 78 1004.5
20260509133909 60 90 2.0 6.0 0.00 0.09 0.09 77 1004.5
20260509133409 60 96 1.0 6.0 0.00 0.09 0.09 78 1004.5
20260509132910 60 159 1.0 8.0 0.00 0.09 0.09 79 1004.5
20260509131909 59 155 1.0 7.0 0.00 0.09 0.09 81 1004.6
20260509131408 59 156 1.0 12.0 0.00 0.09 0.09 81 1004.5
20260509130909 58 160 2.0 12.0 0.00 0.09 0.09 80 1004.6
20260509130408 58 158 5.0 13.0 0.00 0.09 0.09 81 1004.6
20260509125910 58 163 8.0 13.0 0.00 0.09 0.09 81 1004.7
20260509125409 58 133 2.0 8.0 0.00 0.09 0.09 81 1004.7
20260509124409 58 62 5.0 12.0 0.00 0.10 0.09 81 1004.8
20260509123409 58 94 3.0 10.0 0.01 0.11 0.09 81 1004.9
20260509122910 58 119 4.0 12.0 0.01 0.11 0.09 82 1004.9
20260509122409 58 60 9.0 15.0 0.01 0.11 0.09 84 1004.7
20260509121909 57 70 2.0 8.0 0.02 0.11 0.09 88 1004.8
20260509121409 57 72 2.0 10.0 0.02 0.11 0.09 86 1004.9
20260509120909 56 45 2.0 10.0 0.02 0.11 0.09 88 1005.0
20260509120409 56 41 1.0 5.0 0.02 0.11 0.09 89 1005.0
20260509115409 55 41 3.0 6.0 0.03 0.11 0.09 90 1005.0
20260509114909 55 41 6.0 10.0 0.03 0.11 0.09 90 1005.0
20260509114409 55 42 3.0 6.0 0.03 0.11 0.09 90 1005.2
20260509113909 55 41 5.0 9.0 0.03 0.11 0.09 90 1005.2
20260509112910 55 27 6.0 10.0 0.03 0.10 0.09 89 1005.3
20260509112409 56 31 7.0 12.0 0.03 0.10 0.09 89 1005.3
20260509111410 56 71 2.0 6.0 0.02 0.09 0.08 87 1005.4
20260509110909 56 77 2.0 8.0 0.02 0.09 0.08 86 1005.5
20260509105911 56 339 3.0 8.0 0.02 0.09 0.07 87 1005.6
20260509104909 56 36 3.0 9.0 0.01 0.08 0.06 86 1005.4
20260509104410 57 86 3.0 6.0 0.01 0.08 0.06 85 1005.4
20260509103409 57 86 1.0 5.0 0.01 0.08 0.06 83 1005.4
20260509102911 57 86 2.0 5.0 0.00 0.07 0.06 82 1005.4
20260509102409 58 86 1.0 6.0 0.00 0.07 0.06 81 1005.4
20260509101909 58 85 0.0 3.0 0.00 0.07 0.06 79 1005.5
20260509100909 59 141 2.0 5.0 0.00 0.07 0.06 77 1005.4
20260509095910 59 58 1.0 7.0 0.00 0.07 0.06 76 1005.3